Location: S�tio Afonso Gruber
(26.1760°S, 49.5250°W)
Time: 00:41:37
(UTC+00:00)

Intelsat 5-3 Rocket - Pass Details

Date: 09 October 2020
Orbit: 281 x 6111 km, 23.6° (Epoch: 22 October)

Event Time Altitude Azimuth Distance (km) Brightness Sun altitude
Exits shadow 03:58:25 55° 60° (ENE) 4,962 6.7 -55.0°
Drops below altitude 10° 04:26:32 10° 71° (ENE) 9,614 8.6 -51.9°
Sets 04:35:33 0° 72° (ENE) 10,731 9.0 -50.7°
